GFSMW_700_rhum_120.txt.gz
RH
13 18 25 29 34 35 34 32 29 21 18 22 28 32 38 33 28 30 29 29 28 26 22 23 38 42 38 25 29 36 99 76 90 99 94 91 98 96 86 77 70 67 60
22 30 36 40 44 45 42 37 28 22 23 26 30 35 40 32 29 32 35 35 37 33 40 35 40 51 43 34 26 36 71 94 82 97 100 88 98 100 97 95 86 77 67
34 41 46 49 51 46 44 38 30 28 27 33 38 41 36 32 31 35 38 40 42 48 60 54 52 50 39 66 98 76 62 70 97 99 99 100 99 99 100 98 92 78 70
42 48 49 50 49 46 44 38 36 33 32 39 43 41 41 41 36 32 33 37 44 50 64 74 76 79 70 71 80 98 100 82 89 94 91 93 96 73 76 95 99 97 76
44 46 47 46 42 42 41 40 40 39 39 41 40 42 46 51 50 45 39 35 36 35 61 74 85 92 98 100 100 91 94 78 71 61 75 98 96 90 88 59 71 73 74
41 42 42 42 41 42 43 42 42 42 41 28 20 31 48 51 54 54 57 60 52 51 56 58 57 62 70 89 98 98 86 81 80 76 72 74 73 81 77 67 66 62 55
39 38 36 34 38 40 41 42 45 45 36 19 10 8 14 14 14 21 11 13 13 10 10 12 26 42 70 92 99 98 95 82 79 78 78 85 85 80 75 80 83 74 60
36 31 28 26 23 28 28 30 39 37 17 8 7 7 8 8 9 10 10 9 9 9 9 9 10 11 12 13 14 14 14 14 15 16 19 20 15 12 11 10 10 9 8
15 13 14 13 14 13 16 18 14 10 8 8 8 8 8 9 10 10 10 10 11 13 14 15 15 16 17 18 18 17 17 16 16 15 15 14 14 14 13 13 11 10 11
12 13 13 12 11 12 13 12 10 9 9 9 10 11 11 11 11 12 13 15 16 16 16 21 26 28 27 28 28 28 28 27 26 25 22 20 17 15 13 12 11 10 10
11 12 13 13 13 13 14 13 12 14 14 14 12 12 12 12 12 13 15 18 18 17 23 34 34 28 28 29 30 31 33 35 37 38 39 39 38 36 33 31 29 27 26
17 16 15 15 17 18 18 17 17 17 13 12 12 12 13 13 13 14 17 18 18 20 35 38 28 27 28 28 29 32 35 37 39 41 41 41 41 40 39 38 36 36 36
20 25 20 20 22 25 25 24 20 17 13 13 13 13 14 14 15 16 18 19 19 28 38 30 27 28 29 30 31 34 36 37 35 32 27 23 19 17 13 12 11 10 10
17 19 21 18 18 19 20 22 20 19 18 15 14 15 16 20 23 20 18 19 21 36 34 28 29 30 31 32 33 34 34 31 27 22 16 12 9 8 7 7 7 6 6
12 13 16 19 18 16 18 22 24 21 21 19 20 22 21 23 26 22 18 19 27 38 29 29 31 32 32 33 34 34 30 23 16 10 8 7 7 8 9 11 13 14 12
11 12 13 16 18 19 18 19 24 28 26 22 27 25 22 22 25 23 19 20 34 36 30 30 32 34 34 34 34 28 20 13 9 8 8 11 15 18 23 26 28 27 22
12 12 12 13 16 20 23 21 24 33 29 29 33 29 26 26 26 26 22 22 38 35 30 30 32 34 35 35 30 20 12 9 9 11 15 20 25 28 30 30 28 25 20
12 13 15 15 14 15 15 21 23 29 38 39 40 35 29 24 23 23 21 24 39 35 31 30 31 35 36 33 25 14 9 9 12 14 18 22 27 33 31 30 28 24 20
14 14 17 18 16 14 15 19 22 26 30 34 42 40 33 29 28 26 22 29 41 36 33 32 33 37 36 31 19 11 9 12 15 22 28 32 34 35 38 37 34 32 29
24 24 25 24 21 20 20 21 23 26 26 35 40 33 28 30 31 31 23 33 42 38 37 35 36 38 36 27 15 10 10 15 21 30 40 41 43 44 45 43 42 40 36
28 30 28 22 23 24 23 22 25 25 34 44 39 33 35 35 37 30 25 36 44 42 41 38 37 39 36 22 12 10 11 18 26 37 42 48 49 48 48 49 50 47 45
29 31 28 20 20 23 27 29 31 35 35 36 36 40 40 39 37 29 26 39 47 46 45 42 40 40 35 19 11 10 15 26 36 41 45 49 51 49 48 50 52 52 49
29 28 24 22 24 26 30 32 36 40 41 40 41 44 44 42 36 27 26 43 51 50 49 45 42 43 33 16 10 12 23 38 42 48 51 56 54 52 53 56 58 58 48
28 26 24 22 16 16 23 34 36 44 49 49 50 51 51 48 38 26 27 48 55 54 52 48 45 45 32 13 11 19 39 46 50 54 59 60 58 57 58 60 63 65 55
34 32 26 19 14 13 18 34 40 46 58 59 58 60 59 48 36 26 30 61 62 56 54 51 48 47 30 12 12 28 44 48 52 57 62 62 64 64 66 68 71 73 74
36 34 25 17 15 15 22 36 41 48 59 58 59 61 57 44 34 26 34 76 62 58 56 54 51 48 27 12 13 37 43 51 60 64 68 70 70 71 72 75 77 79 81

GFSMW_700_rhum_123.txt.gz
RH
16 16 14 16 22 26 28 30 30 29 26 20 23 26 28 32 34 27 27 28 29 30 32 33 34 39 39 30 35 40 33 30 33 67 85 80 98 93 99 99 94 90 95
16 15 18 24 32 35 36 35 35 31 24 24 25 29 32 34 32 34 34 31 31 33 35 34 38 41 44 40 42 41 39 33 28 49 95 98 99 86 100 100 97 100 100
14 17 28 36 39 39 38 36 36 32 27 26 27 30 32 31 38 39 38 31 32 30 28 25 38 43 51 54 46 62 60 66 82 56 66 89 87 92 96 95 98 94 94
23 34 38 38 38 38 36 35 36 34 31 32 32 33 29 37 45 45 40 34 36 30 31 44 48 43 48 61 57 53 81 97 86 78 66 48 57 48 46 54 75 76 80
35 36 37 36 37 37 36 35 35 35 35 36 33 16 20 35 40 41 42 45 49 44 36 22 35 51 45 47 62 69 80 85 77 68 80 74 67 68 70 62 71 81 91
35 35 35 34 32 29 34 35 37 39 41 37 24 12 6 8 8 11 8 7 7 7 7 7 8 8 9 10 12 18 51 82 82 75 73 74 76 83 90 76 72 71 69
37 37 35 25 20 16 16 22 26 32 35 28 13 6 7 7 8 8 8 8 8 9 11 13 14 14 15 16 16 16 16 14 13 13 13 12 16 22 26 19 13 12 11
30 26 18 13 12 11 10 11 14 14 10 8 6 7 8 8 9 9 10 11 14 16 17 16 16 18 24 27 25 25 25 26 24 21 19 17 16 16 15 15 15 15 14
12 12 12 12 10 9 8 8 8 8 7 7 8 8 9 10 10 11 12 14 17 18 17 17 24 32 34 28 24 25 26 27 28 30 31 31 30 28 26 24 23 23 24
9 10 10 10 8 8 8 8 8 8 8 8 9 9 10 11 12 12 13 15 18 18 18 21 33 36 30 24 26 27 27 28 29 31 33 36 37 38 38 39 39 39 38
14 12 11 10 9 10 10 10 9 9 9 9 10 10 11 12 12 13 14 15 18 19 18 25 35 32 25 27 27 28 28 28 30 33 34 34 33 33 32 30 29 28 26
14 12 12 13 11 11 10 11 12 11 12 12 11 11 12 13 14 15 16 17 18 19 19 28 35 27 27 29 30 30 29 29 31 32 31 29 26 24 20 17 13 11 9
12 13 14 15 14 12 12 14 15 17 16 15 15 16 16 16 17 19 23 22 18 19 20 30 34 27 28 29 31 31 30 30 30 29 27 22 16 11 8 7 6 6 6
14 11 10 13 15 16 15 14 15 17 20 19 18 19 19 17 18 22 26 27 19 19 22 35 33 29 27 28 32 32 31 31 29 24 18 12 8 7 7 8 11 14 16
10 10 10 11 12 13 17 18 19 22 26 25 26 30 26 22 24 25 26 28 24 20 25 37 34 29 26 26 31 33 32 30 26 18 10 7 7 9 13 19 21 21 20
9 9 11 12 12 13 15 21 22 24 27 26 32 41 37 33 31 28 25 25 25 21 26 38 35 30 28 28 32 34 33 29 22 11 8 8 10 14 18 20 24 26 24
10 12 12 13 14 16 17 16 19 28 28 28 33 43 46 40 41 38 34 32 30 24 26 39 37 34 34 31 31 35 34 27 15 9 8 11 14 20 25 29 29 32 35
20 15 15 14 15 18 21 20 18 23 28 29 29 36 46 47 46 38 38 34 35 26 27 40 39 38 37 33 32 36 34 24 12 8 10 15 22 30 32 34 38 39 40
20 26 25 24 24 26 25 22 19 19 24 29 33 43 58 61 56 47 44 41 40 29 27 42 42 42 41 36 35 38 34 19 10 9 14 21 31 34 38 38 39 38 40
28 28 28 28 28 28 24 20 21 21 23 33 40 57 72 68 63 60 49 46 43 30 27 44 46 46 45 39 39 40 34 16 9 11 20 31 36 40 45 46 44 42 42
31 32 31 31 30 30 23 19 20 23 28 29 33 43 50 58 63 54 50 48 44 31 28 47 49 52 47 40 42 42 30 14 10 14 28 39 44 48 50 52 52 49 46
29 34 34 31 31 31 28 26 25 28 30 34 37 40 47 58 60 57 56 54 45 29 31 51 56 70 52 42 43 42 25 12 11 21 35 42 48 52 54 55 56 56 55
30 32 33 30 30 32 29 24 20 23 31 37 42 46 49 54 57 58 58 54 41 27 38 61 87 75 52 46 46 42 22 11 15 33 41 47 53 55 59 62 62 62 61
37 38 35 32 31 31 26 21 16 17 29 39 47 55 58 58 61 64 64 55 40 27 51 79 92 68 68 52 49 40 18 12 25 42 46 56 56 61 65 66 70 72 72
44 40 37 34 34 31 21 17 18 24 37 45 52 62 66 67 69 69 66 52 35 27 57 84 91 83 73 56 51 34 14 12 31 40 46 56 64 69 73 77 79 79 82
40 36 29 23 18 17 18 20 27 40 46 49 55 66 70 70 71 71 66 51 30 30 61 93 94 93 69 59 54 30 12 15 36 39 52 63 68 73 76 79 84 89 88

GFSMW_700_rhum_126.txt.gz
RH
9 11 15 17 16 14 15 20 25 28 31 30 22 22 24 27 31 32 30 34 32 27 25 27 26 30 33 36 37 35 35 34 37 39 42 60 68 84 100 99 100 99 98
12 16 17 16 14 19 28 34 34 34 34 31 24 25 26 30 30 27 33 36 28 25 25 24 33 40 40 34 36 45 40 47 44 37 42 48 65 91 99 94 96 97 98
17 17 15 16 28 34 35 34 32 32 33 29 27 28 30 28 17 22 33 33 30 36 31 38 34 25 43 40 33 41 45 55 65 63 71 78 83 86 76 66 80 72 83
18 16 21 32 34 33 34 33 30 30 30 30 31 32 21 13 8 22 29 33 37 40 23 11 7 8 11 17 16 21 30 50 73 82 82 75 73 84 77 63 63 69 84
17 28 31 32 31 28 24 27 30 32 33 35 33 27 19 6 9 11 12 7 7 7 7 7 8 10 11 12 13 13 12 16 41 71 78 86 83 80 77 70 73 79 77
32 33 32 32 25 18 15 11 14 20 24 19 17 16 6 6 7 7 7 8 8 9 10 13 15 16 16 18 22 23 22 22 20 18 15 15 17 17 23 32 38 50 54
34 33 32 28 16 11 10 9 8 9 9 9 11 7 6 7 7 8 9 10 12 14 16 17 16 17 22 28 29 26 21 22 23 24 24 25 25 23 20 18 17 16 15
28 19 14 12 11 9 6 5 5 6 6 6 7 6 7 8 9 10 10 12 13 16 17 17 18 22 30 32 28 22 24 25 25 26 25 25 25 26 28 29 29 28 28
12 9 8 7 6 6 6 6 7 7 7 8 8 8 8 9 10 11 12 12 14 16 18 18 19 26 31 29 24 24 26 27 27 27 26 27 28 28 29 30 32 33 32
11 9 8 7 7 7 7 8 8 9 9 9 10 10 10 10 12 13 14 14 14 16 19 19 19 24 29 28 24 25 26 28 29 28 26 26 27 28 29 29 29 28 27
14 13 12 11 11 11 11 10 11 12 12 12 11 11 11 12 13 15 16 16 16 18 18 19 20 25 30 28 25 25 26 29 30 29 27 27 28 28 26 24 20 18 15
16 13 14 13 14 13 14 15 15 15 18 17 16 15 15 15 14 15 17 18 21 23 20 19 20 25 32 29 26 23 24 28 31 30 28 27 26 23 18 14 10 8 6
14 11 10 10 10 11 14 16 16 18 19 18 20 21 20 19 18 18 19 20 23 27 25 19 20 26 33 31 26 23 24 27 31 32 29 28 23 15 9 7 6 7 10
10 10 9 9 10 10 11 13 15 21 22 21 21 25 29 28 25 26 26 25 25 26 27 23 20 24 35 34 28 27 26 27 31 33 31 26 18 10 7 7 10 14 18
10 9 9 9 10 11 12 13 14 17 24 24 25 30 38 39 38 40 40 38 34 31 29 28 22 23 35 36 32 32 30 28 32 34 32 24 13 8 7 10 12 15 17
16 16 13 11 12 11 12 13 15 18 22 24 27 35 40 43 43 48 51 50 46 39 34 30 26 24 36 39 36 37 34 29 32 36 32 21 11 8 9 13 18 21 23
17 17 18 17 14 14 14 15 18 22 22 20 22 30 37 38 42 53 60 64 58 51 45 39 35 26 36 41 41 42 38 32 33 38 31 19 11 9 12 19 27 29 34
18 22 23 24 24 23 23 25 26 28 27 24 22 28 36 43 51 60 69 74 70 61 52 44 40 28 35 43 45 46 42 35 36 39 28 16 9 10 16 26 31 34 39
23 22 26 29 30 30 29 29 28 28 24 25 26 31 44 54 62 74 85 88 79 69 57 49 46 29 36 46 48 54 49 38 39 40 26 12 10 14 24 31 35 37 41
26 25 26 26 27 29 30 29 26 26 20 23 24 27 35 44 52 73 83 89 86 77 60 53 49 30 37 49 57 69 53 44 42 41 22 11 15 24 35 39 40 41 46
24 25 26 27 30 32 32 28 26 27 24 24 25 29 35 42 47 57 72 86 100 82 68 62 54 29 41 53 76 78 57 64 46 40 18 12 24 39 44 46 48 51 53
25 25 25 28 32 34 34 31 31 31 29 26 24 30 38 42 46 56 82 100 100 82 71 66 50 29 48 70 86 79 79 66 48 36 15 13 32 43 46 52 57 60 61
25 28 32 35 37 36 35 34 34 31 27 23 18 22 38 47 52 57 75 96 81 74 72 66 46 30 59 78 88 88 89 67 50 30 12 17 38 42 50 59 66 65 65
32 35 37 37 36 35 33 31 28 23 19 18 20 29 42 50 58 64 68 70 72 77 76 67 37 33 63 79 86 94 90 65 48 24 12 26 40 47 58 64 68 70 74
20 20 18 18 18 18 18 18 19 20 23 29 38 45 48 52 58 68 72 73 75 79 78 65 31 34 62 90 95 95 88 66 42 19 12 32 38 53 65 71 74 76 78
29 31 31 31 30 27 25 25 25 30 34 37 41 44 47 54 63 67 73 80 85 88 85 64 30 53 89 94 96 95 92 65 32 14 15 35 40 61 70 75 78 82 81

GFSMW_700_rhum_129.txt.gz
RH
4 5 8 10 13 17 16 13 16 24 27 28 29 28 21 22 22 26 25 22 28 31 24 21 20 22 35 38 36 30 30 34 34 39 43 38 36 40 57 54 61 70 85
5 8 10 14 17 16 14 24 28 28 27 27 29 27 22 24 27 27 17 23 30 29 25 27 25 32 12 17 24 28 35 37 38 44 50 49 69 59 58 63 64 79 89
8 10 14 17 17 17 28 28 28 27 25 28 28 26 26 28 22 11 14 22 24 22 29 35 23 8 7 8 10 10 11 13 18 34 52 56 59 67 72 59 56 68 70
10 13 17 16 20 28 27 21 22 26 27 26 27 28 29 22 13 7 8 7 8 9 11 7 7 8 11 13 15 17 19 20 19 18 21 43 58 59 61 81 80 63 66
16 18 16 25 28 27 19 15 11 14 21 29 31 29 21 14 5 6 6 6 7 7 7 8 11 13 16 17 21 24 24 22 20 20 21 20 18 17 16 17 36 61 73
16 19 28 30 30 26 14 10 8 8 10 14 13 11 10 5 6 6 7 8 8 9 10 12 15 17 18 20 26 27 25 20 20 22 23 23 23 24 25 25 24 20 16
30 32 31 28 22 13 10 9 6 6 6 7 7 7 6 6 7 7 8 9 10 11 13 15 18 18 19 24 27 24 23 21 23 24 25 26 25 24 24 25 25 25 26
33 28 16 10 8 8 8 6 5 6 6 6 6 6 6 7 7 8 9 10 11 12 14 16 18 19 19 24 26 26 23 23 23 24 27 28 27 26 24 24 24 25 26
17 15 14 9 6 5 6 6 7 7 7 7 7 7 7 8 8 9 10 11 12 13 14 16 18 19 20 22 23 25 24 23 22 23 26 29 28 26 25 24 24 24 24
23 14 8 8 8 8 9 9 9 9 10 10 9 9 9 9 9 10 10 12 13 14 15 17 19 19 20 22 24 26 24 22 21 21 24 29 30 28 26 25 24 23 21
24 11 11 11 10 10 10 11 12 12 10 10 11 12 12 12 12 12 12 13 15 16 18 23 25 21 19 20 24 27 26 24 22 22 23 27 31 30 27 25 22 17 14
11 12 11 10 10 11 11 10 10 11 13 12 13 14 16 17 18 18 18 17 17 18 19 23 27 27 20 19 25 31 30 27 25 26 24 27 32 32 28 24 17 12 8
13 11 10 8 8 8 8 8 9 12 14 16 16 17 18 20 22 24 24 24 25 25 24 26 26 27 26 21 22 30 33 31 30 30 26 26 32 34 30 22 14 9 7
13 13 12 9 8 8 8 9 10 11 13 15 16 19 22 26 30 32 30 34 37 37 37 36 32 30 28 25 22 28 35 35 35 34 31 28 33 35 31 20 13 8 8
15 14 13 13 14 13 10 10 11 12 14 15 15 18 27 32 36 39 42 44 46 50 52 50 45 40 34 31 25 27 36 38 40 40 34 30 35 36 29 20 11 8 10
17 17 16 16 16 17 16 14 14 14 15 17 20 25 26 28 38 43 47 49 52 55 61 61 59 50 42 38 32 27 38 41 44 45 42 34 36 38 30 17 10 10 14
23 22 20 19 21 24 24 22 21 23 25 27 28 29 29 29 32 45 53 56 64 70 71 77 74 67 55 47 42 29 37 44 48 54 52 40 39 38 27 15 9 14 22
23 24 25 25 25 26 28 29 31 32 32 32 32 32 30 31 33 40 54 68 74 80 83 87 87 77 64 54 49 31 38 47 54 65 52 52 43 39 25 12 11 16 28
25 26 26 26 26 27 27 28 29 30 32 32 28 26 24 27 29 31 43 63 75 84 92 99 96 95 78 65 58 33 38 49 66 73 61 64 44 37 21 11 15 26 35
30 29 28 26 26 27 28 29 31 34 34 30 30 28 27 28 30 38 46 57 64 76 94 100 100 100 88 72 64 34 39 51 78 78 76 64 47 34 14 14 26 36 43
22 22 23 25 27 29 29 30 31 32 31 32 32 31 29 28 30 37 44 55 66 89 100 100 99 97 82 73 66 33 43 61 80 87 87 73 51 33 13 23 38 44 46
19 20 21 25 28 29 29 29 30 30 30 30 31 30 26 24 20 27 40 49 63 96 100 99 98 84 80 78 66 33 46 70 79 90 92 81 52 24 13 32 42 50 55
21 20 20 20 19 19 19 19 18 17 16 16 17 18 20 22 26 35 45 55 64 80 100 100 89 86 85 81 57 33 52 70 85 94 93 83 47 17 15 37 44 57 63
28 30 31 30 31 32 33 36 38 35 29 24 23 25 30 36 41 46 50 58 67 76 87 90 90 94 92 86 46 32 56 91 95 96 90 84 33 14 22 38 48 63 68
36 35 34 34 34 33 34 36 41 49 54 55 54 53 55 56 56 54 55 64 76 83 87 91 96 98 97 92 54 56 56 95 97 95 90 77 23 14 32 39 59 69 74
30 25 21 19 25 33 40 43 47 51 56 62 62 61 63 67 70 75 81 82 84 86 96 97 97 97 96 94 78 83 93 96 97 94 93 49 16 17 36 49 68 76 79

GFSMW_700_rhum_132.txt.gz
RH
6 4 3 4 7 10 14 17 15 19 25 24 24 24 26 25 20 20 22 24 18 16 27 26 24 23 22 20 8 18 24 25 22 19 24 26 29 38 38 49 54 50 52
4 3 4 6 10 13 17 15 23 24 25 24 22 24 24 21 20 22 24 16 10 15 18 17 21 29 25 8 8 9 11 12 14 16 15 25 36 45 42 53 56 54 52
4 4 5 9 12 17 16 24 23 18 18 22 22 22 23 22 24 25 18 7 8 8 8 10 13 11 7 7 11 15 18 19 18 18 17 17 18 33 42 49 52 47 57
4 5 8 13 17 16 25 21 15 11 9 9 17 23 25 27 26 19 6 6 7 7 6 7 7 7 9 13 17 19 19 18 19 18 18 18 18 18 19 20 19 18 17
7 12 15 17 17 26 25 19 11 9 8 7 9 17 22 19 12 6 6 6 7 7 8 8 9 11 14 18 19 20 21 19 20 19 19 21 22 22 23 22 22 23 24
16 17 17 22 27 25 22 16 11 9 6 4 5 7 7 6 6 5 6 7 7 8 9 10 12 14 17 19 19 21 21 19 20 20 20 21 23 25 26 26 25 24 23
17 23 28 29 26 18 12 9 7 6 4 4 4 4 5 5 6 6 7 7 8 9 10 11 13 15 18 19 20 20 20 20 20 21 21 21 22 25 27 27 26 23 22
29 30 29 19 13 12 7 5 5 5 4 5 5 5 6 6 7 7 7 8 9 10 11 12 13 15 18 20 20 20 21 21 21 21 20 21 21 24 28 29 28 25 22
30 21 17 19 11 6 6 6 6 6 6 6 6 7 7 7 8 8 8 9 9 10 11 13 14 16 20 22 20 20 21 23 23 22 21 22 22 23 27 30 30 28 24
23 24 25 14 9 9 8 8 8 9 9 8 8 9 9 10 10 10 11 11 11 11 12 13 15 18 24 26 23 20 20 24 26 26 24 24 24 24 26 29 32 30 26
33 35 16 8 8 8 8 8 9 10 10 11 11 11 11 11 12 13 15 15 14 15 16 16 17 19 22 26 28 24 20 22 27 29 28 27 27 27 29 29 32 32 27
12 10 10 8 7 7 7 7 8 7 8 10 11 12 14 16 17 19 21 20 22 25 25 26 26 26 26 25 26 26 23 21 26 32 32 32 32 32 30 31 34 34 29
13 11 11 12 11 10 9 8 8 8 9 10 12 13 14 16 21 27 31 30 28 31 34 40 43 43 44 40 37 32 29 25 25 33 36 37 38 38 37 34 35 36 30
12 12 12 12 13 14 14 14 14 12 12 12 13 14 15 18 20 25 32 40 44 45 49 52 54 59 60 59 55 46 38 33 26 32 39 41 43 45 46 38 38 37 30
14 15 20 20 19 17 17 18 18 18 16 15 16 17 19 23 26 28 30 38 48 52 60 63 65 68 70 75 70 62 49 44 34 30 41 44 48 55 53 49 42 38 29
17 26 25 24 23 22 21 21 22 21 20 20 21 25 28 30 31 32 32 32 37 47 59 66 72 76 79 85 83 76 59 49 44 31 36 46 53 63 57 58 45 39 28
29 27 24 25 26 26 25 25 26 27 28 29 30 31 31 30 29 29 29 30 37 46 53 69 81 87 90 96 96 88 72 58 54 35 38 48 59 69 67 67 46 40 23
25 27 28 29 29 28 26 26 25 26 26 27 28 31 31 28 27 24 24 32 40 46 55 70 86 95 99 100 98 97 82 66 62 40 36 48 68 75 77 71 52 40 20
29 28 26 24 23 24 25 26 27 29 30 31 32 32 33 32 31 30 30 30 32 41 53 65 78 96 100 100 100 98 92 73 70 45 36 52 77 85 88 81 61 51 17
20 20 20 21 23 24 24 24 24 24 24 26 27 29 31 32 33 32 30 29 32 40 64 84 90 100 100 98 86 98 92 76 77 50 37 56 78 78 80 88 78 42 15
20 20 20 20 20 20 21 22 23 23 22 21 19 18 17 16 17 17 19 20 23 29 44 57 98 100 99 100 100 97 87 83 84 47 38 56 75 87 93 92 82 28 15
22 24 27 29 30 30 30 30 28 28 28 29 33 36 33 27 23 23 25 29 36 42 50 59 66 98 100 98 98 96 88 92 90 38 41 65 90 96 96 93 70 16 21
33 34 33 33 32 30 27 22 16 11 16 27 37 44 50 51 50 50 51 48 45 44 48 53 59 96 100 99 96 98 96 94 90 39 55 87 89 96 97 92 35 16 29
35 36 37 37 34 28 17 9 10 18 24 27 27 32 47 56 58 60 60 62 66 69 72 73 76 82 86 92 100 96 95 95 94 86 94 88 94 96 95 76 19 19 37
41 35 25 16 11 6 4 4 4 6 10 17 23 25 30 51 63 63 58 59 70 72 69 75 86 95 95 98 96 97 97 96 95 95 94 96 96 97 95 39 17 31 40
44 45 41 35 24 7 3 3 3 4 5 6 14 21 29 42 51 60 69 69 62 64 68 79 85 89 96 98 98 96 96 96 96 95 96 95 97 97 81 20 19 38 58

GFSMW_700_rhum_135.txt.gz
RH
20 13 6 4 4 5 8 11 16 15 19 19 18 17 17 20 22 20 18 20 23 21 9 11 16 15 18 24 23 8 7 10 12 13 15 15 14 14 21 29 30 35 40
14 10 4 4 4 8 10 15 16 19 20 16 14 19 18 19 20 19 20 23 21 8 8 8 7 9 12 9 7 8 12 16 18 16 15 16 15 15 17 20 24 35 40
6 4 4 4 6 10 14 16 18 20 14 10 8 8 13 20 23 24 25 22 8 6 6 6 7 7 7 8 10 13 18 19 17 15 16 16 16 18 19 20 20 20 20
5 4 4 5 11 15 16 18 22 18 11 9 8 6 6 11 17 20 15 7 5 6 6 7 8 9 10 11 14 18 19 19 17 14 16 18 18 18 19 22 23 24 24
6 5 7 12 16 17 20 24 22 18 12 10 5 3 4 6 7 8 7 5 6 6 7 8 9 10 12 14 17 19 19 19 17 14 17 19 19 20 20 19 23 26 26
13 15 17 18 17 23 25 23 17 11 6 5 4 3 4 4 5 6 6 6 6 7 8 9 10 11 12 14 17 20 20 19 18 17 16 18 20 20 21 21 22 25 27
16 16 18 22 26 27 20 14 11 5 4 4 4 4 5 5 5 6 6 6 7 8 8 9 10 11 13 14 17 21 22 20 19 19 19 18 18 19 21 22 23 26 29
21 25 28 30 22 16 15 8 5 5 5 6 6 6 6 6 6 7 7 8 8 8 8 9 10 12 13 15 19 25 25 22 20 20 22 22 21 20 21 22 24 30 31
24 28 25 19 20 17 9 7 7 6 7 7 8 8 9 8 8 9 10 10 11 10 11 11 12 12 14 16 19 25 28 26 22 20 22 24 25 24 24 24 27 32 32
27 24 24 28 29 17 7 7 7 7 8 8 7 8 10 11 12 13 14 15 15 17 18 18 18 18 17 17 18 20 23 26 26 23 21 25 28 29 29 28 31 34 36
30 32 32 16 8 8 7 7 7 7 7 7 8 8 11 13 16 19 23 23 22 23 25 27 26 28 28 28 28 28 27 26 25 24 22 22 27 31 33 33 34 40 43
15 11 10 9 8 9 9 10 9 9 9 8 8 9 11 14 15 19 22 23 25 29 33 36 38 41 41 41 42 41 40 38 34 31 28 25 26 32 36 38 39 45 51
8 10 12 12 11 11 10 11 12 13 13 13 13 12 12 13 14 15 16 19 24 27 31 39 45 49 52 54 55 57 59 60 54 44 37 33 28 32 38 42 44 50 56
11 13 13 14 18 21 20 18 16 18 17 16 16 16 15 15 16 18 24 28 29 30 32 40 55 62 68 72 76 78 79 78 70 59 48 42 34 32 40 45 49 58 61
14 14 15 24 24 21 22 24 24 24 24 24 24 24 24 25 27 29 30 32 32 34 35 38 51 66 74 79 84 88 91 94 91 79 64 56 46 34 41 48 58 66 68
15 21 27 25 23 23 24 26 27 27 26 26 26 26 26 26 26 28 29 28 27 28 32 36 47 60 69 82 91 95 97 95 93 90 76 64 59 36 40 49 64 72 76
27 27 25 26 28 28 27 27 26 27 27 27 27 27 27 27 28 29 28 27 26 25 28 34 41 50 65 80 97 99 96 97 99 97 93 70 64 47 39 52 71 81 77
29 29 29 25 22 21 22 24 25 25 25 25 24 25 25 26 28 28 30 30 31 31 30 32 40 51 66 84 99 100 94 98 95 92 98 82 78 50 39 53 76 78 76
30 24 19 19 20 20 20 20 20 19 19 19 19 19 18 18 17 17 17 18 18 22 25 26 31 46 69 93 100 100 96 96 91 96 96 90 83 56 40 47 78 82 87
20 20 20 21 21 22 23 25 26 26 26 24 24 25 25 26 27 28 27 25 22 22 22 23 26 32 44 80 95 99 96 94 100 97 96 94 90 69 41 46 74 81 96
21 22 24 27 29 30 30 30 28 26 22 16 8 5 6 10 18 29 38 43 45 45 42 40 40 42 50 65 94 99 95 100 97 96 96 96 95 87 69 56 80 92 92
28 32 33 32 33 32 31 26 17 9 4 3 2 3 4 6 7 11 26 40 47 51 55 57 59 61 61 62 68 75 83 94 94 97 96 96 95 95 80 79 95 94 96
32 32 34 34 26 17 12 10 6 3 2 2 2 2 2 3 7 12 19 35 50 55 53 53 60 68 71 77 85 91 95 97 94 96 98 96 96 96 89 96 97 96 95
36 38 37 35 37 40 34 22 11 6 3 2 2 2 2 2 5 12 21 26 35 45 56 56 51 52 56 74 91 92 97 100 100 100 98 98 97 96 96 96 97 96 95
44 47 50 53 54 53 46 32 19 10 5 3 3 2 2 2 3 6 16 28 39 49 51 59 62 59 58 72 79 80 81 91 95 96 98 98 97 97 96 96 96 96 94
49 52 55 57 57 50 31 14 7 5 4 4 3 3 3 3 3 3 6 25 27 40 49 57 66 72 75 76 83 82 74 78 94 95 94 97 96 96 96 96 96 96 75

GFSMW_700_rhum_138.txt.gz
RH
24 22 20 8 5 4 5 7 10 14 15 17 18 12 9 16 19 20 19 19 21 23 20 6 7 7 9 13 14 8 7 10 15 17 16 14 13 14 14 15 15 16 17
23 21 14 6 5 5 5 8 13 16 18 18 11 9 8 7 8 15 20 23 23 19 6 6 6 6 7 7 7 8 11 15 19 19 17 15 15 15 15 15 16 18 18
15 11 6 5 5 5 7 13 16 18 22 17 12 10 8 4 6 11 14 14 9 5 5 6 6 7 8 9 10 12 15 18 19 19 17 14 15 16 16 17 18 19 19
10 7 6 5 5 7 13 16 19 24 22 20 14 10 5 3 4 5 5 6 5 5 6 6 7 8 9 10 11 13 17 20 20 20 18 15 13 13 15 17 19 20 21
8 6 5 5 9 14 17 21 25 25 20 13 7 4 4 3 4 4 5 5 6 6 6 7 7 8 9 10 12 14 17 20 22 20 18 17 15 13 13 12 19 22 24
6 8 11 14 17 20 25 28 25 17 14 8 4 4 4 4 4 4 5 6 6 6 7 7 8 8 9 10 12 14 16 21 24 23 20 19 18 18 16 14 14 15 21
17 16 16 18 25 29 28 21 16 16 8 4 4 4 4 5 5 6 6 6 7 7 7 8 8 8 9 10 11 13 16 21 27 27 24 21 19 19 20 20 18 16 18
20 21 25 29 28 24 18 18 17 9 5 5 5 5 6 6 7 7 7 8 8 9 9 10 10 10 11 11 12 13 15 18 24 28 28 26 24 21 20 21 22 21 20
26 30 29 26 21 21 24 25 17 6 5 6 6 7 7 8 8 8 9 10 11 11 13 13 14 14 14 15 16 17 17 17 18 19 21 23 23 21 21 24 26 27 27
27 26 25 24 26 28 21 8 6 6 6 6 6 7 8 8 9 10 12 12 13 13 15 17 18 20 21 24 26 28 28 28 28 27 26 25 24 23 22 24 28 31 33
29 29 30 30 16 8 7 8 9 9 9 8 9 9 9 9 10 12 14 15 14 16 17 20 23 29 34 37 38 41 43 44 45 47 46 41 36 31 28 26 28 33 37
15 9 8 8 8 8 9 9 10 12 13 13 13 14 13 13 12 13 16 17 16 17 20 24 27 32 41 46 47 52 55 59 62 62 62 60 52 43 38 32 30 33 38
12 9 9 10 10 10 12 16 19 19 15 16 20 18 16 15 15 14 15 16 18 22 27 29 32 35 42 50 54 58 64 67 69 71 71 74 69 59 50 45 35 35 41
9 10 11 11 11 17 22 21 19 19 22 23 24 24 24 23 23 23 23 25 28 29 30 30 30 33 37 42 53 64 72 76 80 86 86 88 85 74 63 57 46 36 40
11 12 12 13 23 24 23 23 25 26 26 26 26 26 25 25 25 25 26 26 27 28 28 26 24 25 29 35 45 58 73 83 89 92 93 94 97 91 82 68 60 42 39
14 13 14 24 26 25 26 27 27 25 24 24 24 24 23 24 24 25 25 26 27 28 28 28 27 26 28 35 47 58 71 90 99 100 99 96 93 97 90 82 69 51 40
15 19 29 29 28 26 23 20 21 23 23 22 20 19 18 18 18 18 18 18 19 21 25 29 32 33 34 38 46 59 67 83 93 96 92 98 92 97 97 96 79 67 42
29 32 30 27 22 19 20 20 19 19 19 19 19 20 20 20 20 21 22 24 24 23 21 19 19 20 22 27 32 44 63 80 91 99 98 98 98 99 96 91 82 75 45
30 30 26 20 20 20 20 21 23 24 24 24 22 18 14 10 6 5 6 8 11 18 23 30 33 33 30 30 32 38 42 55 88 98 95 97 96 98 96 88 86 81 45
30 23 21 21 22 24 26 27 27 27 26 21 12 5 2 2 2 2 2 2 3 4 11 20 30 40 48 54 51 50 49 53 67 84 97 93 97 100 97 94 93 92 72
24 21 22 24 28 29 29 28 23 12 8 6 5 3 2 2 2 2 2 2 2 3 5 10 27 38 50 56 62 64 66 67 66 77 96 89 98 96 97 97 94 96 97
23 25 29 31 32 32 26 22 29 34 31 20 10 6 4 3 3 2 2 2 2 2 4 6 16 36 47 50 56 60 67 69 74 82 90 100 97 98 99 96 96 95 93
28 32 33 36 38 39 45 47 49 45 38 25 10 7 5 4 3 3 2 2 2 2 4 7 12 25 50 60 56 53 60 70 74 80 91 92 96 96 94 97 96 96 96
32 34 40 44 48 53 56 54 49 40 24 13 9 8 6 5 4 3 3 3 3 3 4 7 11 23 40 61 66 60 64 68 74 79 76 74 90 96 98 96 96 96 98
37 42 46 50 53 55 52 40 23 12 10 10 9 7 6 5 5 4 4 4 4 4 4 5 12 26 38 70 77 76 77 82 86 85 77 75 89 95 97 96 96 97 97
43 47 52 54 54 36 18 15 14 14 12 10 7 6 5 4 4 4 3 4 4 4 5 5 9 21 40 61 74 72 76 84 91 86 80 77 92 95 96 95 95 96 97

GFSMW_700_rhum_141.txt.gz
RH
23 22 22 21 14 6 4 4 4 8 12 15 18 14 9 9 8 6 10 17 20 22 21 14 5 6 6 6 7 7 8 9 11 16 18 18 16 13 13 15 15 15 15
22 24 23 20 16 8 4 4 6 10 15 17 20 16 12 11 5 3 6 11 13 11 7 5 5 6 6 7 8 9 10 12 15 18 20 19 18 14 13 14 14 15 16
22 21 18 12 8 6 5 5 9 14 17 22 22 17 13 7 4 3 4 4 5 5 5 5 6 6 7 8 8 9 11 14 17 20 21 21 20 16 14 13 13 13 14
23 21 12 8 7 6 5 9 14 17 21 24 18 13 6 4 3 3 4 4 5 5 6 6 6 7 7 8 8 10 11 13 16 20 22 22 20 18 16 14 13 13 12
22 17 10 7 6 6 10 15 18 23 25 18 16 9 3 3 3 4 4 4 5 5 6 6 6 7 7 8 8 9 11 13 16 19 24 26 24 21 18 17 17 17 16
15 10 7 7 9 14 17 20 26 25 17 17 9 4 4 4 4 4 5 5 5 5 6 6 7 7 7 8 8 9 10 11 13 17 23 28 29 26 24 22 20 19 19
8 8 12 15 16 18 23 27 21 17 18 13 6 5 4 4 5 6 6 6 6 7 7 8 8 8 9 9 10 10 11 11 12 13 16 22 26 28 27 25 23 21 19
14 18 17 18 22 27 24 19 20 23 22 10 5 5 5 6 6 6 7 8 8 9 9 10 10 11 12 13 13 13 14 14 15 15 16 17 19 21 22 22 21 20 19
19 17 19 24 26 22 22 26 26 19 7 5 6 6 6 6 7 7 8 9 9 10 11 12 12 13 15 18 19 21 22 24 25 25 26 27 28 28 27 26 25 23 22
20 22 24 25 24 26 27 19 8 7 7 7 8 8 8 8 8 8 9 10 11 11 14 15 14 15 18 21 24 27 29 30 32 33 35 37 38 38 39 38 35 32 28
25 26 27 28 28 23 9 8 8 9 9 9 10 11 11 12 12 12 12 12 12 14 14 15 15 17 21 26 28 32 38 43 46 49 49 49 50 51 51 52 49 44 39
31 24 10 8 8 9 10 10 11 14 17 19 18 15 17 20 19 18 16 15 14 14 15 16 18 23 28 31 32 34 38 46 54 59 60 64 66 67 68 70 66 57 50
14 13 10 9 10 10 10 13 19 22 21 20 21 22 23 24 24 24 24 24 24 24 25 27 28 29 30 32 34 35 38 43 56 67 70 74 77 83 88 87 83 74 65
14 22 13 10 12 11 14 24 24 23 22 24 25 26 26 25 25 25 26 26 25 25 25 25 25 26 26 25 26 28 32 37 46 60 67 73 78 87 95 92 94 93 81
19 14 12 13 12 15 24 26 25 25 25 24 22 21 21 22 22 22 22 22 23 23 23 24 26 27 27 28 29 30 31 34 42 56 66 75 87 91 95 96 94 94 95
17 14 14 13 13 21 27 27 25 22 20 20 21 19 17 17 17 16 17 17 17 17 17 17 18 18 19 21 23 25 28 32 36 44 62 77 90 94 95 91 98 90 96
16 15 14 17 27 29 26 21 19 19 18 18 17 18 18 18 16 14 12 8 6 7 10 15 18 22 25 27 25 24 22 23 24 28 44 76 95 100 98 99 98 95 86
16 16 30 31 29 25 20 18 18 19 21 23 23 22 20 18 13 6 3 2 2 2 2 2 2 3 9 17 24 31 34 36 37 36 40 56 87 100 99 99 100 96 99
29 32 30 29 24 20 20 21 24 26 26 26 22 12 6 4 3 3 3 3 3 3 2 2 2 2 3 6 11 21 29 34 47 56 56 57 71 81 96 98 94 92 98
33 32 30 24 21 23 27 29 29 30 26 15 13 20 22 16 10 8 7 6 6 5 4 3 2 2 2 4 7 13 19 29 43 56 62 68 71 76 99 96 96 89 91
33 32 26 23 27 30 30 31 31 27 28 38 38 35 28 16 9 9 9 9 7 6 4 3 3 2 3 4 7 11 11 26 38 47 53 66 83 86 85 94 94 98 98
32 26 26 30 32 32 34 35 38 44 45 41 31 18 13 12 12 12 11 10 8 7 5 4 4 3 3 4 7 12 18 31 41 52 53 64 84 90 92 96 98 99 96
28 27 31 34 34 36 40 42 47 49 45 33 13 14 16 17 15 12 10 9 7 6 5 5 4 4 4 4 11 16 30 48 45 48 55 65 69 79 82 82 83 91 95
29 32 36 36 39 45 49 52 52 47 35 15 14 15 16 18 16 11 7 6 5 4 4 4 4 4 4 4 8 28 37 53 65 62 61 67 69 82 91 82 81 90 97
36 38 37 38 43 47 51 52 49 41 31 29 22 18 19 16 11 6 5 4 4 4 4 4 4 4 4 5 7 11 34 58 80 84 68 60 68 89 94 82 78 96 99
41 39 38 41 46 51 52 51 51 47 29 20 20 18 12 6 4 3 2 3 3 3 3 4 6 5 8 8 12 14 15 40 72 80 66 60 67 90 97 86 83 96 98

GFSMW_700_rhum_144.txt.gz
RH
24 22 22 22 19 19 13 7 4 4 4 7 13 16 17 14 14 10 4 4 5 8 10 7 5 5 6 6 6 7 7 8 10 12 14 17 19 20 19 15 13 12 13
22 22 23 23 23 21 17 10 5 4 4 10 15 18 18 16 14 5 3 3 4 4 4 4 4 5 6 6 6 7 8 8 9 11 14 17 19 21 21 19 15 13 12
20 21 23 23 21 16 12 7 5 4 8 14 18 19 17 14 5 3 3 3 4 4 5 5 5 6 6 7 7 8 8 10 11 13 15 18 20 23 24 22 18 16 14
22 22 21 17 13 10 7 6 5 6 13 18 20 18 16 7 3 3 4 4 4 4 5 5 6 6 6 7 7 7 8 9 10 12 15 18 21 25 27 25 22 20 19
22 24 24 21 13 8 6 5 6 14 19 21 19 17 7 4 4 4 4 5 5 5 5 6 6 6 6 7 7 7 8 8 9 10 12 15 19 24 27 27 26 25 24
23 24 23 16 10 7 6 8 16 20 22 19 18 15 7 4 4 5 5 6 6 6 6 6 7 7 8 8 8 9 9 10 10 11 11 12 14 17 21 23 24 25 24
24 25 16 9 7 9 14 17 21 22 19 21 22 15 5 5 5 6 6 7 7 8 7 8 8 9 10 10 11 12 13 14 14 15 15 15 15 15 16 16 17 16 16
15 12 10 12 14 16 19 23 21 21 23 24 17 6 5 6 6 6 6 7 7 8 8 9 10 11 12 12 14 15 18 19 21 22 23 22 22 22 23 23 24 24 24
14 15 17 18 18 20 22 22 23 25 21 8 6 6 7 8 8 8 9 10 10 10 10 11 12 13 13 14 14 16 21 24 28 30 30 32 33 32 32 34 35 36 35
18 16 16 20 22 23 24 26 24 10 7 7 9 11 12 13 13 14 14 15 14 13 14 14 14 15 15 15 16 20 25 27 30 32 36 40 42 43 43 45 48 48 46
16 18 22 24 26 28 25 14 8 8 8 10 14 18 19 18 18 21 22 21 20 18 17 17 17 17 19 21 25 28 30 31 33 35 38 41 49 53 54 56 60 60 58
24 25 29 24 10 8 7 8 9 10 14 19 21 20 21 23 24 25 26 25 25 25 25 25 25 26 27 28 29 31 32 32 32 34 36 42 49 55 60 67 70 72 75
29 27 13 11 8 7 9 10 10 17 23 23 23 24 26 26 26 26 24 24 25 25 26 25 25 25 27 27 28 28 29 28 28 29 31 38 43 49 63 70 72 77 84
28 14 13 17 13 10 12 12 16 22 26 26 26 26 24 21 20 22 22 22 21 20 20 20 21 21 21 21 22 24 25 26 28 29 31 33 38 47 60 66 74 84 89
16 19 17 11 12 13 12 14 20 26 26 23 20 18 20 20 18 17 16 16 17 17 17 16 16 16 16 18 19 19 19 20 20 21 23 27 36 45 51 64 82 91 95
28 25 17 14 14 13 16 24 27 24 19 18 18 18 17 18 19 19 18 16 11 6 3 3 3 3 3 4 5 8 12 17 20 20 27 29 30 32 40 55 79 97 96
31 28 14 14 14 24 29 27 23 19 18 18 20 22 24 23 22 15 6 4 4 4 4 4 4 4 3 3 3 3 3 3 6 12 22 34 39 44 45 48 66 78 93
32 16 15 20 30 30 28 23 20 20 22 25 26 26 24 15 10 15 17 14 10 8 8 8 7 7 5 4 4 3 3 3 3 6 14 18 30 44 49 56 57 62 94
23 17 26 32 31 29 24 22 23 27 29 30 28 23 18 24 30 27 19 12 11 11 12 12 11 9 8 5 4 4 4 3 3 3 6 13 23 38 54 60 65 71 78
18 24 34 34 31 25 23 26 29 31 31 30 28 29 36 36 23 13 14 16 18 18 17 16 13 11 10 7 5 4 4 4 3 4 7 17 24 37 50 56 54 60 73
25 35 35 32 27 25 28 31 33 33 34 35 39 44 42 28 13 12 13 14 16 19 21 19 15 10 7 6 5 5 4 4 4 4 8 20 34 42 56 58 55 71 91
35 36 34 29 27 31 34 34 35 38 42 44 46 43 38 30 27 28 22 19 21 21 17 13 11 8 6 5 5 5 5 5 5 5 10 25 52 61 61 60 64 80 87
36 35 30 30 34 36 36 36 38 44 46 46 45 42 42 42 35 22 22 23 17 10 8 6 5 5 4 3 4 4 5 6 7 6 12 43 88 90 85 76 81 90 94
37 33 34 38 41 38 36 39 43 45 47 46 44 43 41 26 24 22 13 7 4 3 2 2 2 2 2 2 3 4 5 8 11 15 18 52 100 100 97 88 89 96 97
37 36 40 43 41 37 38 42 45 48 47 46 45 28 25 23 15 6 3 3 3 4 3 4 4 4 3 5 8 12 13 16 22 34 33 35 54 96 98 99 100 100 100
41 41 44 44 40 38 39 43 46 47 48 38 24 24 18 7 3 3 2 4 5 6 8 10 16 14 22 21 29 32 38 48 56 57 52 55 48 55 100 100 100 100 95

GFSMW_700_rhum_147.txt.gz
RH
25 20 20 20 22 21 19 17 15 8 4 4 5 8 13 16 16 15 10 4 3 3 4 4 4 4 5 5 6 6 6 7 8 9 11 13 15 18 20 21 22 20 17
20 21 21 22 22 21 22 21 18 10 5 4 6 10 16 17 16 12 3 3 3 4 4 4 5 5 5 6 6 6 7 7 8 8 9 11 13 16 19 22 24 23 20
22 20 21 23 22 23 22 19 13 8 5 5 8 15 18 16 15 6 3 3 4 4 4 5 5 5 6 6 6 6 7 7 8 8 9 10 11 13 16 20 24 25 24
19 18 21 23 24 20 18 13 8 6 5 7 14 17 18 17 8 3 3 4 4 4 5 5 5 6 6 6 6 7 7 8 8 8 9 10 10 11 12 15 19 22 24
20 21 22 22 22 22 17 10 7 6 7 14 17 19 18 16 8 4 4 4 5 6 6 6 6 7 7 7 8 8 8 9 9 9 10 10 10 11 11 12 13 14 17
21 21 22 24 24 21 13 8 6 8 16 16 19 19 20 17 6 4 4 5 6 6 7 7 8 8 9 9 10 10 11 11 12 13 13 14 15 15 15 15 15 15 15
21 21 23 25 24 15 8 8 13 17 18 19 19 22 22 10 5 5 6 7 8 8 8 8 9 10 11 12 12 13 13 14 15 18 20 22 22 23 23 22 22 21 21
19 21 24 25 16 9 13 16 20 20 19 21 23 17 6 6 7 8 8 9 10 10 11 11 12 12 13 14 14 15 15 15 17 20 24 26 28 30 31 31 32 32 31
20 18 15 11 12 16 18 20 20 20 22 23 12 7 7 8 10 12 14 14 15 16 17 16 15 15 16 16 15 16 17 18 22 26 29 31 34 36 37 39 41 41 38
17 14 14 17 19 19 19 20 21 25 21 8 8 9 11 14 18 19 17 19 22 22 22 22 22 20 20 20 20 21 23 27 30 32 33 34 36 36 39 41 42 45 48
22 19 18 19 20 20 21 24 21 11 8 9 12 16 20 20 20 21 23 23 24 24 24 24 25 25 26 27 27 28 29 28 28 28 27 27 30 32 35 40 42 45 50
18 18 20 21 22 24 10 8 8 9 10 13 19 21 22 23 24 25 25 24 21 22 23 24 25 26 26 27 26 25 25 25 27 28 27 28 30 30 32 34 39 47 53
20 24 24 25 14 10 9 8 9 10 12 17 21 25 25 26 25 22 20 21 22 22 21 20 19 18 16 16 16 15 15 16 17 18 18 20 22 25 31 36 39 46 57
25 26 26 15 13 15 13 10 11 11 13 18 24 25 23 21 20 21 20 19 19 20 19 16 12 8 5 5 5 6 7 7 8 10 12 17 21 24 27 30 34 42 56
24 27 18 18 17 11 10 12 12 13 20 25 24 21 20 20 19 20 22 21 19 13 7 4 3 4 4 4 4 4 4 4 4 4 5 9 18 28 33 33 33 38 44
23 21 26 25 18 12 13 13 19 26 26 23 20 20 20 22 24 23 20 12 9 11 13 11 9 8 8 7 7 7 6 5 4 4 4 4 7 13 23 28 37 46 49
28 31 31 28 13 13 16 27 28 27 23 20 21 23 25 26 25 19 19 27 27 22 16 12 12 13 13 13 12 11 11 10 8 6 4 4 4 8 14 26 31 30 44
36 34 33 24 15 22 29 30 29 24 22 22 25 27 29 27 25 32 36 30 18 13 14 15 16 17 19 19 18 16 14 13 11 8 6 5 4 5 9 12 16 22 27
37 37 30 16 21 32 33 31 27 24 26 29 30 31 30 34 37 38 34 26 20 20 25 23 20 20 21 22 20 17 15 13 11 8 7 5 5 6 13 10 16 32 36
39 35 21 22 30 34 33 29 26 29 32 32 33 35 39 40 39 36 31 34 36 35 26 21 22 23 23 19 13 9 9 10 9 8 7 5 5 6 15 24 23 32 40
30 22 22 30 35 34 31 28 30 34 34 34 37 40 41 40 40 36 37 39 34 23 23 24 21 12 7 5 4 3 3 3 4 4 4 4 6 8 14 49 56 55 76
23 29 34 36 36 33 30 33 37 36 35 37 39 41 42 43 41 41 42 29 23 25 21 12 6 4 2 2 2 2 3 3 3 3 3 3 5 9 16 55 86 99 95
28 30 34 36 34 32 37 40 39 37 37 39 41 42 44 44 45 42 26 24 22 11 4 3 2 2 2 2 3 3 4 4 6 7 8 8 8 12 21 30 85 100 97
30 35 38 37 36 38 41 42 40 37 38 39 40 43 46 47 36 24 24 14 4 3 3 3 3 3 5 7 7 6 6 9 19 29 32 36 35 33 39 56 65 90 99
39 40 40 40 45 48 45 41 38 38 39 42 47 50 48 30 25 14 4 3 3 4 4 6 10 13 12 10 11 23 35 45 68 66 70 76 66 60 60 74 87 98 72
45 44 45 47 49 47 44 41 40 42 47 50 54 40 26 16 4 3 3 4 4 6 8 13 16 17 13 15 33 51 63 66 68 74 72 66 83 76 73 82 99 94 70

GFSMW_700_rhum_150.txt.gz
RH
25 22 22 20 21 20 20 19 17 17 14 8 4 4 6 13 15 14 14 8 3 3 4 4 4 4 5 5 5 6 6 6 6 7 8 8 9 11 12 14 17 20 22
25 23 21 22 23 21 20 20 21 20 17 9 5 5 9 16 15 14 13 4 3 3 4 4 4 5 5 5 6 6 6 7 7 8 8 8 9 10 11 13 15 16 19
25 23 24 26 23 22 21 22 22 18 12 7 5 6 14 17 15 15 8 3 3 4 4 4 4 5 5 6 6 6 6 7 7 7 8 8 8 9 9 10 11 12 14
25 26 24 25 24 24 21 22 18 13 8 6 6 11 18 16 16 14 6 3 3 4 4 5 5 6 6 6 7 7 8 8 8 8 9 9 9 10 10 10 11 11 12
24 23 26 27 26 23 21 21 18 11 7 6 10 18 18 17 18 18 8 4 4 4 6 6 7 7 7 8 8 8 9 10 10 11 12 12 14 15 15 15 16 16 15
24 24 25 25 25 22 23 22 16 9 6 10 18 20 18 19 21 19 6 5 6 6 6 7 7 8 8 9 9 10 11 12 12 13 14 16 18 21 23 24 24 25 24
23 24 23 23 23 24 24 21 11 8 12 18 20 19 20 22 17 6 6 6 7 8 9 11 12 12 12 12 12 12 14 13 14 16 17 18 21 25 28 29 30 29 28
21 22 22 22 22 24 24 12 11 15 18 20 20 21 21 14 7 7 8 9 11 14 14 17 18 18 17 16 16 16 16 16 18 18 20 22 26 29 30 32 33 33 31
20 20 19 20 23 22 12 13 18 19 18 21 22 20 11 7 8 10 13 16 17 18 20 22 22 22 22 21 21 20 20 21 22 23 26 28 29 30 30 32 35 35 33
16 18 20 18 14 12 16 18 19 19 21 23 21 9 8 9 13 17 19 20 21 23 24 25 25 25 25 25 25 26 27 28 28 27 27 28 30 30 29 29 30 31 32
19 19 17 15 16 19 19 19 21 23 22 10 7 8 12 17 20 21 22 24 25 26 26 23 22 24 24 25 24 23 23 22 23 23 25 24 24 24 25 27 29 30 33
20 20 21 20 19 19 20 23 18 8 7 7 8 10 17 20 23 26 26 26 24 22 22 22 20 17 16 16 15 14 14 13 13 15 14 15 18 18 21 23 26 29 34
24 23 20 19 22 23 22 11 9 9 7 8 10 14 19 24 26 25 23 22 21 20 19 18 16 13 9 6 4 4 4 4 4 4 4 4 6 8 12 18 20 24 26
22 20 22 24 25 19 13 13 13 10 9 10 12 18 25 24 22 22 21 20 21 20 17 11 7 6 6 6 6 7 7 7 7 7 7 7 5 5 5 8 11 17 23
23 25 25 26 23 15 16 14 10 10 12 15 23 25 23 22 20 20 22 22 20 16 14 18 21 18 15 12 12 13 14 14 15 14 13 12 9 6 5 5 6 10 18
23 25 25 25 18 24 23 13 12 14 22 27 26 23 21 21 23 24 24 22 22 26 28 23 16 13 14 15 16 16 17 18 19 20 17 14 12 8 6 5 6 8 8
26 25 24 23 30 30 20 13 16 26 29 27 24 22 23 26 28 28 27 29 34 34 29 23 22 28 31 26 22 21 21 22 22 22 20 18 14 10 7 6 6 6 7
26 29 31 34 36 32 17 18 30 31 30 27 25 26 28 30 30 31 33 35 37 35 32 34 36 35 26 22 24 24 23 21 18 15 12 11 10 8 7 6 6 6 7
33 35 38 39 36 22 18 28 32 32 29 27 29 31 31 32 34 36 38 38 38 35 34 38 37 24 24 26 23 15 11 9 7 5 4 4 3 3 4 5 5 6 6
33 39 40 39 32 21 27 34 34 31 29 31 33 33 33 34 36 38 37 37 36 37 41 38 25 26 25 13 6 4 3 3 3 2 2 2 2 3 3 4 5 5 6
37 40 41 36 25 28 36 36 33 31 34 37 36 34 35 37 37 37 38 39 41 44 34 27 26 15 5 3 3 3 3 3 3 3 4 4 4 4 6 12 12 11 13
42 40 29 27 33 35 36 35 33 36 39 40 38 37 37 38 38 40 44 47 44 30 27 18 5 3 3 2 3 6 9 10 9 8 7 7 8 10 16 26 28 26 29
25 28 30 30 34 36 36 35 39 42 43 42 40 39 39 40 45 48 50 40 26 18 5 3 3 3 3 5 8 11 12 13 13 12 10 14 23 32 44 43 62 62 64
30 30 32 36 38 38 40 43 45 45 44 42 40 40 44 49 52 48 28 19 6 3 3 3 3 4 7 13 16 16 16 18 18 25 36 44 49 51 57 62 60 82 72
35 39 41 42 42 43 45 48 48 46 42 41 44 50 55 52 33 19 6 4 4 5 5 6 7 10 12 17 19 20 23 19 35 57 57 56 57 58 60 51 66 68 86
41 44 46 46 48 50 51 48 45 43 46 52 57 55 33 16 6 4 4 5 6 7 9 11 12 14 17 19 23 25 25 20 38 60 57 52 46 47 51 46 60 72 89